[TLELIST] Archives

 

[TLELIST] Current TLEs

April 15th 2025 PDT

HST 1 20580U 90037B 25104.69544608 .00009467 00000-0 36641-3 0 9997 2 20580 28.4667 115.0392 0002273 115.3361 244.7469 15.24435175722986 ISS (ZARYA) 1 25544U 98067A 25104.93771177 .00013802 00000-0 25327-3 0 9990 2 25544 51.6362 260.3059 0005231 40.9775 319.1606 15.49550269505353 CXO 1 25867U 99040B 25105.96914894 .00000895 00000-0 00000+0 0 9994 2 25867 48.1030 132.8028 8515445 308.4124 0.0837 0.37808205 26867 ...Continue Reading

[TLELIST] Current TLEs

April 14th 2025 PDT

HST 1 20580U 90037B 25104.17171204 .00009507 00000-0 36811-3 0 9992 2 20580 28.4666 118.5846 0002299 110.7701 249.3139 15.24425514723164 ISS (ZARYA) 1 25544U 98067A 25103.90582541 .00013909 00000-0 25545-3 0 9991 2 25544 51.6361 265.4147 0005122 37.8814 322.2534 15.49519521505197 CXO 1 25867U 99040B 25105.96914894 .00000895 00000-0 00000+0 0 9994 2 25867 48.1030 132.8028 8515445 308.4124 0.0837 0.37808205 26867 ...Continue Reading

[TLELIST] Current TLEs

April 14th 2025 PDT

HST 1 20580U 90037B 25104.17171204 .00009507 00000-0 36811-3 0 9992 2 20580 28.4666 118.5846 0002299 110.7701 249.3139 15.24425514723164 ISS (ZARYA) 1 25544U 98067A 25103.90582541 .00013909 00000-0 25545-3 0 9991 2 25544 51.6361 265.4147 0005122 37.8814 322.2534 15.49519521505197 CXO 1 25867U 99040B 25105.96914894 .00000895 00000-0 00000+0 0 9994 2 25867 48.1030 132.8028 8515445 308.4124 0.0837 0.37808205 26867 ...Continue Reading

[TLELIST] Current TLEs

April 13th 2025 PDT

HST 1 20580U 90037B 25102.73142639 .00010590 00000-0 41129-3 0 9994 2 20580 28.4669 128.3345 0002315 96.8250 263.2608 15.24397518722686 ISS (ZARYA) 1 25544U 98067A 25103.13189730 .00016876 00000-0 30834-3 0 9992 2 25544 51.6361 269.2466 0005074 35.3494 324.7831 15.49497756505075 CXO 1 25867U 99040B 25105.96914894 .00000895 00000-0 00000+0 0 9994 2 25867 48.1030 132.8028 8515445 308.4124 0.0837 0.37808205 26867 ...Continue Reading

[TLELIST] Current TLEs

April 12th 2025 PDT

HST 1 20580U 90037B 25101.42205096 .00009859 00000-0 38267-3 0 9991 2 20580 28.4673 137.1977 0002299 84.3585 275.7272 15.24369897722486 ISS (ZARYA) 1 25544U 98067A 25102.16447026 .00014053 00000-0 25849-3 0 9994 2 25544 51.6359 274.0371 0005100 32.6107 327.5195 15.49465106504923 CXO 1 25867U 99040B 25103.32514594 .00000835 00000-0 00000-0 0 9990 2 25867 48.0761 132.8939 8519576 308.3942 0.0948 0.37812561 15696 ...Continue Reading

[TLELIST] Current TLEs

April 12th 2025 PDT

HST 1 20580U 90037B 25101.42205096 .00009859 00000-0 38267-3 0 9991 2 20580 28.4673 137.1977 0002299 84.3585 275.7272 15.24369897722486 ISS (ZARYA) 1 25544U 98067A 25102.16447026 .00014053 00000-0 25849-3 0 9994 2 25544 51.6359 274.0371 0005100 32.6107 327.5195 15.49465106504923 CXO 1 25867U 99040B 25103.32514594 .00000835 00000-0 00000-0 0 9990 2 25867 48.0761 132.8939 8519576 308.3942 0.0948 0.37812561 15696 ...Continue Reading

[TLELIST] Current TLEs

April 11th 2025 PDT

HST 1 20580U 90037B 25100.44000422 .00010217 00000-0 39709-3 0 9990 2 20580 28.4676 143.8446 0002283 74.8670 285.2177 15.24349915722339 ISS (ZARYA) 1 25544U 98067A 25101.02967319 .00017382 00000-0 31794-3 0 9994 2 25544 51.6379 279.6534 0005348 32.4221 113.6148 15.49440859504746 CXO 1 25867U 99040B 25103.32514594 .00000835 00000-0 00000-0 0 9990 2 25867 48.0761 132.8939 8519576 308.3942 0.0948 0.37812561 15696 ...Continue Reading

[TLELIST] Current TLEs

April 11th 2025 PDT

HST 1 20580U 90037B 25100.44000422 .00010217 00000-0 39709-3 0 9990 2 20580 28.4676 143.8446 0002283 74.8670 285.2177 15.24349915722339 ISS (ZARYA) 1 25544U 98067A 25101.02967319 .00017382 00000-0 31794-3 0 9994 2 25544 51.6379 279.6534 0005348 32.4221 113.6148 15.49440859504746 CXO 1 25867U 99040B 25103.32514594 .00000835 00000-0 00000-0 0 9990 2 25867 48.0761 132.8939 8519576 308.3942 0.0948 0.37812561 15696 ...Continue Reading

[TLELIST] Current TLEs

April 10th 2025 PDT

HST 1 20580U 90037B 25100.24359293 .00011072 00000-0 43100-3 0 9991 2 20580 28.4675 145.1739 0002283 73.0273 287.0572 15.24347534722567 ISS (ZARYA) 1 25544U 98067A 25100.16506412 .00016440 00000-0 30151-3 0 9991 2 25544 51.6354 283.9348 0005001 26.2629 333.8612 15.49411715504616 CXO 1 25867U 99040B 25100.68080164 .00000827 00000-0 00000-0 0 9998 2 25867 48.0416 132.9947 8525309 308.3667 0.0958 0.37811186 15680 ...Continue Reading

[TLELIST] Current TLEs

April 9th 2025 PDT

HST 1 20580U 90037B 25098.86870126 .00010850 00000-0 42260-3 0 9997 2 20580 28.4676 154.4791 0002236 60.2771 299.8045 15.24316859722098 ISS (ZARYA) 1 25544U 98067A 25099.02883663 .00012701 00000-0 23524-3 0 9991 2 25544 51.6387 289.5561 0005135 20.7798 117.4947 15.49367294504434 CXO 1 25867U 99040B 25100.68080164 .00000827 00000-0 00000-0 0 9998 2 25867 48.0416 132.9947 8525309 308.3667 0.0958 0.37811186 15680 ...Continue Reading
  • This mailing list is a public mailing list - anyone may join or leave, at any time.
  • This mailing list is announce-only.

International Space Station (ISS) / Hubble Space Telescope (HST) / Chandra X-Ray Observatory Orbital Data via EMAIL

Privacy Policy:

Private list